This is the latest recevied weather packets stored in our database for station/object KD5UMO-1. If no packets are shown the sender has not sent any weather packets the latest 10 day(s).
| Time | Temp. | Humidity | Pressure | Rain* | Wind** | Luminosity | Snow |
|---|---|---|---|---|---|---|---|
| 1777743265 | 22.78° C | 32% | 1022.3 hPa | 0 mm | - | 882 W/m² | - |
| 1777742964 | 22.22° C | 35% | 1022.4 hPa | 0 mm | - | 880 W/m² | - |
| 1777742660 | 22.78° C | 33% | 1022.2 hPa | 0 mm | - | 877 W/m² | - |
| 1777742356 | 23.33° C | 32% | 1022.3 hPa | 0 mm | - | 872 W/m² | - |
| 1777742052 | 22.78° C | 35% | 1022.3 hPa | 0 mm | - | 866 W/m² | - |
| 1777741750 | 21.67° C | 32% | 1022.8 hPa | 0 mm | - | 859 W/m² | - |
| 1777741446 | 22.78° C | 38% | 1022.5 hPa | 0 mm | - | 853 W/m² | - |
| 1777741142 | 22.22° C | 32% | 1022.4 hPa | 0 mm | - | 847 W/m² | - |
| 1777740839 | 22.22° C | 35% | 1022.6 hPa | 0 mm | - | 840 W/m² | - |
| 1777740536 | 21.67° C | 35% | 1022.6 hPa | 0 mm | - | 830 W/m² | - |
| 1777740233 | 22.22° C | 37% | 1022.4 hPa | 0 mm | - | 821 W/m² | - |
| 1777739929 | 21.67° C | 38% | 1022.5 hPa | 0 mm | - | 814 W/m² | - |
| 1777739625 | 21.67° C | 37% | 1022.6 hPa | 0 mm | - | 801 W/m² | - |
| 1777739323 | 21.67° C | 36% | 1022.4 hPa | 0 mm | - | 791 W/m² | - |
| 1777739019 | 21.67° C | 36% | 1022.6 hPa | 0 mm | - | 781 W/m² | - |
| 1777738717 | 21.67° C | 35% | 1022.6 hPa | 0 mm | - | 771 W/m² | - |
| 1777738413 | 21.67° C | 36% | 1022.5 hPa | 0 mm | - | 759 W/m² | - |
| 1777738111 | 20.56° C | 38% | 1022.6 hPa | 0 mm | - | 744 W/m² | - |
| 1777737809 | 21.67° C | 40% | 1022.4 hPa | 0 mm | - | 735 W/m² | - |
| 1777737508 | 20.56° C | 44% | 1022.6 hPa | 0 mm | - | 723 W/m² | - |
| 1777737205 | 20° C | 42% | 1022.5 hPa | 0 mm | - | 709 W/m² | - |
| 1777736901 | 21.67° C | 40% | 1022.5 hPa | 0 mm | - | 702 W/m² | - |
| 1777736287 | 20.56° C | 41% | 1022.3 hPa | 0 mm | - | 677 W/m² | - |
| 1777735983 | 21.11° C | 44% | 1022.2 hPa | 0 mm | - | 663 W/m² | - |
| 1777735675 | 20.56° C | 45% | 1022.3 hPa | 0 mm | - | 649 W/m² | - |
* Rain latest hour (hover to see other rain measurements)
** Current wind speed in m/s (hover to see current wind gust speed)